Flag for Spain Weather past 2 weeks in Málaga, Spain

Now
63 °F

Sunny.


Feels Like: 63 °F
Forecast: 60 / 75 °F
Wind: 8 mph from Northwest

Location: Malaga / Aeropuerto

Current Time: Oct 25, 2014 at 11:40:23 AM

Latest Report: Oct 25, 2014 at 11:00 AM


Visibility: 10 mi

Pressure: 30.09 "Hg

Humidity: 68%

Dew point: 52 °F

Location of MálagaLocation

Historic Weather in Málaga — Graph

°F

Málaga temperature yesterday

Maximum temperature yesterday: 75 °F (at 1:00 PM)
Minimum temperature yesterday: 54 °F (at 7:30 AM)
Average temperature yesterday: 63 °F

Past Weeks' High & Low Weather Summary

 TemperatureHumidityPressure
High93 °F (Oct 22, 3:30 PM)100% (Oct 10, 3:00 PM)30.24 "Hg (Oct 10, 3:00 PM)
Low54 °F (Oct 13, 7:00 AM)16% (Oct 22, 4:30 PM)29.77 "Hg (Oct 11, 6:00 PM)
Average66 °F81%30.03 "Hg
* Reported Oct 10 10:00 AM — Oct 25 10:30 AM, Málaga, Weather by CustomWeather, © 2014

Note: Actual official high and low records may vary slightly from our data, if they occured in-between our weather recording intervals... More about our weather records

Advertising

Málaga weather history for previous 24 hours

 ConditionsComfort  
Time TempWeatherWind HumidityBarometerVisibility
10:30 AM
Oct 25
59 °FSunny.9 mph77%30.09 "Hg10 mi
10:00 AM57 °FSunny.8 mph77%30.09 "Hg10 mi
9:30 AM57 °FClear.12 mph77%30.07 "Hg10 mi
9:00 AM54 °FClear.12 mph82%30.07 "Hg10 mi
8:30 AM54 °FClear.12 mph82%30.07 "Hg10 mi
8:00 AM54 °FClear.10 mph88%30.07 "Hg10 mi
7:30 AM55 °FClear.12 mph82%30.07 "Hg10 mi
7:00 AM55 °FClear.9 mph82%30.04 "Hg10 mi
6:30 AM55 °FClear.10 mph82%30.04 "Hg10 mi
6:00 AM55 °FClear.8 mph82%30.04 "Hg10 mi
5:30 AM55 °FClear.9 mph82%30.04 "Hg10 mi
5:00 AM55 °FClear.10 mph88%30.04 "Hg10 mi
4:30 AM57 °FClear.7 mph77%30.04 "Hg10 mi
4:00 AM57 °FClear.9 mph82%30.07 "Hg10 mi
3:30 AM57 °FClear.7 mph82%30.07 "Hg10 mi
3:00 AM59 °FClear.7 mph77%30.07 "Hg10 mi
2:30 AM59 °FClear.8 mph82%30.07 "Hg10 mi
2:00 AM59 °FClear.8 mph82%30.07 "Hg10 mi
1:30 AM59 °FClear.9 mph82%30.07 "Hg10 mi
1:00 AM59 °FClear.8 mph82%30.07 "Hg10 mi
12:30 AM61 °FClear.8 mph83%30.07 "Hg10 mi
12:00 AM61 °FClear.8 mph83%30.07 "Hg10 mi
11:30 PM
Oct 24
59 °FClear.8 mph88%30.07 "Hg10 mi
11:00 PM59 °FClear.3 mph88%30.07 "Hg10 mi
10:30 PM61 °FClear.3 mph83%30.04 "Hg10 mi
10:00 PM63 °FClear.No wind83%30.04 "Hg10 mi
9:30 PM63 °FClear.1 mph83%30.04 "Hg10 mi
9:00 PM63 °FClear.1 mph88%30.04 "Hg10 mi
8:30 PM64 °FClear.No wind88%30.04 "Hg10 mi
8:00 PM64 °FSunny.1 mph94%30.01 "Hg10 mi
7:30 PM66 °FSunny.2 mph88%30.01 "Hg10 mi
7:00 PM66 °FSunny.3 mph88%30.01 "Hg10 mi
6:30 PM68 °FSunny.6 mph88%30.01 "Hg10 mi
6:00 PM70 °FPassing clouds.6 mph83%30.01 "HgN/A
5:30 PM70 °FSunny.7 mph78%30.01 "Hg10 mi
5:00 PM70 °FSunny.8 mph73%30.01 "Hg10 mi
4:30 PM72 °FSunny.9 mph61%30.01 "Hg10 mi
4:00 PM72 °FPassing clouds.9 mph61%30.01 "HgN/A
3:30 PM72 °FSunny.8 mph61%30.01 "Hg10 mi
3:00 PM73 °FPassing clouds.7 mph57%30.01 "HgN/A
2:30 PM73 °FSunny.7 mph50%30.01 "Hg10 mi
2:00 PM73 °FPassing clouds.7 mph53%30.04 "HgN/A
1:30 PM73 °FSunny.6 mph53%30.04 "Hg10 mi
1:00 PM75 °FSunny.No wind50%30.04 "Hg10 mi
12:30 PM73 °FSunny.No wind61%30.04 "Hg10 mi
12:00 PM70 °FSunny.2 mph69%30.04 "Hg10 mi
11:30 AM66 °FSunny.3 mph73%30.04 "Hg10 mi
11:00 AM63 °FSunny.5 mph83%30.07 "Hg10 mi
Weather by CustomWeather, © 2014

See weather overviewHow to use our weather pages